www.pogodaiklimat.ru

Погода и климат >> Архив погоды >> Индонезия >> Цитеко


ПОГОДА в Цитеко

  • Прогноз погоды в Цитеко
  • Монитор погоды в Цитеко

АРХИВ ПОГОДЫ в Цитеко

Время (UTC), дата Ветер
(напр.,м/с)
 
Видим.   Явления Облачность Т
(С)
Тd
(С)
f
(%)
Тe
(С)
Тes
(С)
Комфортность P
(гПа)
Po
(гПа)
Тmin
(С)
Tmax
(С)
R
(мм)
R24
(мм)
S
(см)
00 15.09 З 1 8000 м 9/4 600 м
[Sc As trans Ci fib]
+16.8 +13.9 83 +18 +19 1010.7 905.1 +16.0
03 15.09 З 2 10 км 9/3 600 м
[Cu med, cong As trans Ci fib]
+22.6 +16.8 70 +27 +35 душно 1011.0 905.5
06 15.09 СЗ 3 9000 м 9/6 600 м
[Cu med, cong As trans Ci fib]
+25.8 +16.4 56 +29 +34 душно 1008.5 903.2
09 15.09 З 3 8000 м мгла 9/8 600 м
[Cu med, cong As trans]
+24.0 +17.1 65 +28 +28 душно 1007.6 902.4
12 15.09 Ю 1 8000 м мгла 10/9 600 м
[Cu med, cong As trans]
+22.6 +17.8 74 +28 +28 душно 1008.3 903.0
15 15.09 штиль 0 6000 м 9/6 600 м
[Sc As trans Ci sp]
+20.0 +17.9 88 +23 +23 комфорт 1010.4 904.9
18 15.09 штиль 0 6000 м 6/4 600 м
[Sc As trans Ci sp]
+17.8 +16.6 93 +18 +18 1009.4 904.0
00 16.09 СВ 2 8000 м 8/5 600 м
[Sc diur, vesp As trans Ci fib]
+19.0 +15.9 82 +21 +22 комфорт 1010.2 904.7 +16.8
03 16.09 СВ 2 10 км 8/5 600 м
[Sc diur, vesp As trans Ci fib]
+25.8 +16.2 55 +29 +36 душно 1010.7 905.2
06 16.09 СЗ 3 10 км 8/6 600 м
[Cu med, cong As trans Ci fib]
+26.0 +16.6 56 +30 +35 душно 1008.7 903.4
09 16.09 СЗ 2 10 км 6/6 600 м
[Cu med, cong As trans Ci fib]
+26.0 +19.3 67 +31 +33 очень
душно
1007.4 902.3
12 16.09 штиль 0 6000 м 8/6 600 м
[Cu med, cong As trans Ci fib]
+22.8 +19.6 82 +29 +29 очень
душно
1009.1 903.7 +27.6
15 16.09 штиль 0 6000 м 9/6 600 м
[Sc As trans Ci fib]
+20.8 +18.4 86 +25 +25 комфорт 1010.7 905.2
18 16.09 штиль 0 6000 м мгла 10/8 600 м
[Sc As trans]
+18.6 +16.7 89 +19 +19 1009.8 904.3
21 16.09 штиль 0 6000 м 10/8 600 м
[Sc As trans]
+18.0 +14.8 82 +18 +18 1009.7 904.3
00 17.09 Ю 1 8000 м 8/5 600 м
[Sc diur, vesp As trans Ci fib]
+18.4 +16.4 88 +20 +21 1011.4 905.8 +17.6
03 17.09 СЗ 3 8000 м мгла 5/3 600 м
[Sc diur, vesp As trans Ci fib]
+23.6 +18.9 75 +28 +37 душно 1011.8 906.2
06 17.09 З 2 8000 м мгла 8/6 600 м
[Cu med, cong As trans]
+26.2 +18.4 62 +31 +37 очень
душно
1009.8 904.4
09 17.09 СЗ 3 9000 м 8/6 600 м
[Cu med, cong As trans Ci fib]
+26.8 +17.9 58 +31 +32 душно 1009.2 903.8
12 17.09 штиль 0 6000 м 8/6 600 м
[Cu med, cong As trans Ci fib]
+22.4 +19.2 82 +28 +28 душно 1010.8 905.3 +28.0
15 17.09 штиль 0 6000 м 6/4 600 м
[Sc As trans Ci fib]
+19.6 +15.9 79 +21 +21 комфорт 1011.8 906.2
18 17.09 штиль 0 6000 м 6/4 600 м
[Sc As trans Ci fib]
+18.2 +15.4 84 +18 +18 1011.3 905.7
21 17.09 штиль 0 6000 м 6/1 600 м
[Sc As trans Ci fib]
+18.0 +16.4 90 +18 +18 1011.1 905.6
00 18.09 СВ 1 8000 м 5/1 600 м
[Sc As trans Ci fib]
+18.6 +13.4 72 +21 +22 комфорт 1012.4 906.7 +17.8
03 18.09 З 3 8000 м 5/3 600 м
[Cu hum As trans Ci fib]
+25.2 +18.1 65 +30 +39 душно 1012.9 907.1
06 18.09 С 1 6000 м 10/8 600 м
[Cu med, cong As trans Ci fib]
+26.0 +19.3 67 +31 +34 очень
душно
1010.7 905.1
09 18.09 штиль 0 6000 м осадки на расстоянии 10/9 600 м
[Cu med, cong As trans]
+26.2 +19.5 67 +32 +32 очень
душно
1009.9 904.5
12 18.09 штиль 0 6000 м осадки на расстоянии 9/9 600 м
[Cu med, cong Ci fib]
+22.0 +19.7 87 +28 +28 душно 1011.7 906.0 +27.0 0.7
15 18.09 штиль 0 6000 м 9/8 600 м
[Sc Ci fib]
+19.6 +17.8 89 +22 +22 комфорт 1012.4 906.7
18 18.09 штиль 0 6000 м 8/6 600 м
[Sc Ci fib]
+18.2 +14.7 80 +18 +18 1010.9 905.3
21 18.09 штиль 0 6000 м 6/5 600 м
[Sc Ci fib]
+17.4 +14.3 82 +17 +17 1010.6 905.1
00 19.09 Ю 1 6000 м 9/6 600 м
[Cu med, cong As trans Ci fib]
+18.2 +16.7 91 +20 +21 1012.3 906.6 +17.2 0.7
03 19.09 З 1 7000 м 8/5 600 м
[Cu med, cong As trans Ci fib]
+23.6 +18.9 75 +28 +35 душно 1012.4 906.7
06 19.09 СЗ 2 8000 м 9/6 600 м
[Cu med, cong As trans Ci fib]
+25.4 +19.3 69 +31 +36 очень
душно
1010.1 904.6
09 19.09 СЗ 2 9000 м 9/6 600 м
[Cu med, cong As trans Ci fib]
+25.6 +18.9 66 +31 +32 очень
душно
1009.3 903.9
12 19.09 штиль 0 7000 м 9/6 600 м
[Cu med, cong As trans Ci fib]
+23.3 +19.7 80 +30 +30 очень
душно
1010.8 905.2 +26.4
15 19.09 штиль 0 6000 м 10/9 600 м
[Cu med, cong As trans Ci fib]
+21.4 +19.0 86 +26 +26 душно 1011.3 905.7
18 19.09 штиль 0 6000 м 10/9 600 м
[Sc As trans Ci fib]
+19.6 +17.8 89 +22 +22 комфорт 1010.4 904.9
21 19.09 штиль 0 6000 м 9/9 600 м
[Sc Ci fib]
+18.5 +17.1 92 +19 +19 1010.0 904.5
00 20.09 Ю 1 8000 м 5/3 600 м
[Sc diur, vesp As trans]
+18.1 +16.9 93 +19 +21 1011.3 905.7 +18.0
03 20.09 З 2 10 км 5/4 600 м
[Cu hum As trans]
+23.6 +16.4 64 +27 +36 жарко 1011.9 906.2
06 20.09 СЗ 1 10 км 8/6 600 м
[Cu med, cong As trans]
+26.2 +17.2 58 +30 +37 душно 1009.9 904.4
09 20.09 СЗ 2 8000 м мгла 9/9 600 м
[Cu med, cong As trans Ci fib]
+25.0 +17.5 63 +29 +30 душно 1008.8 903.5
12 20.09 штиль 0 6000 м {дождь} 9/8 600 м
[Cu med, cong As trans Ci fib]
+22.2 +18.0 77 +27 +27 душно 1010.5 905.0 +27.0 0.0
15 20.09 штиль 0 6000 м мгла 10/8 600 м
[Sc As trans]
+20.0 +17.6 86 +23 +23 комфорт 1011.5 905.9
18 20.09 штиль 0 6000 м мгла 10/8 600 м
[Sc As trans]
+18.6 +16.7 89 +19 +19 1010.4 904.9
21 20.09 штиль 0 6000 м 9/6 600 м
[Sc As trans Ci fib]
+17.8 +15.3 85 +18 +18 1010.2 904.7
00 21.09 ЮЗ 1 8000 м 8/3 600 м
[Sc As trans Ci fib]
+17.6 +14.0 79 +19 +20 1011.3 905.7 +17.4 0.0
03 21.09 СЗ 2 9000 м 6/4 600 м
[Cu med, cong As trans Ci fib]
+23.0 +16.9 69 +28 +37 душно 1012.2 906.5
06 21.09 З 2 10 км 9/6 600 м
[Cu med, cong As trans Ci fib]
+26.2 +17.2 58 +30 +35 душно 1009.7 904.3
09 21.09 СЗ 3 10 км 8/6 600 м
[Cu med, cong As trans Ci fib]
+26.8 +14.3 46 +29 +30 жарко 1008.6 903.3
12 21.09 штиль 0 7000 м 9/8 600 м
[Cu med, cong As trans Ci fib]
+22.6 +18.8 79 +28 +28 душно 1009.8 904.3 +27.8
15 21.09 штиль 0 7000 м 9/6 600 м
[Sc As trans Ci fib]
+19.6 +17.5 88 +22 +22 комфорт 1011.5 905.9
18 21.09 штиль 0 6000 м 9/6 600 м
[Sc As trans Ci fib]
+18.6 +16.4 87 +19 +19 1010.6 905.1

 

Местоположение метеостанции Цитеко (Индонезия): широта -6.70 долгота 106.93 высота над уровнем моря 300 м.

В архиве по умолчанию представлена погода в Цитеко за последнюю неделю. Архивные данные за месяц целиком и за предыдущие месяцы, начиная с января 2011 года, Вы можете получить, выбрав интересующий диапазон дат из раскрывающегося списка и нажав кнопку "Ввод!".


*Определитесь, кто Вы:
робот инопланетянин человек

Внимание! Время в таблицах - всемирное. Для получения местного времени необходимо прибавить поправку, которая равна 7 ч.

Смотрите также архив погоды в соседних городах и на ближайших метеорологических станциях:

Погода в Джакарте (Индонезия) (59 км)
Погода в Чуруге (Индонезия) (61 км)
Погода в Джакарта порту (Индонезия) (67 км)
Погода в Аэропорту Сукарно-Хатта (Индонезия) (72 км)
Погода в Бандунге (Индонезия) (75 км)
Погода в Серанге (Индонезия) (109 км)
Погода в Сиребоне (Индонезия) (147 км)
Погода в Тегале (Индонезия) (246 км)
Погода в Чилачапе (Индонезия) (257 км)
Погода в Танджунгкаранге (Индонезия) (263 км)

Пояснения к столбцам:

Ветер - указаны скорость ветра в м/с - средняя за 10 мин, порывы в срок и между сроками (в фигурных скобках) и направление, откуда дует ветер: С - северный, СВ - северо-восточный, В - восточный, ЮВ - юго-восточный, Ю - южный, ЮЗ - юго-западный, З - западный, СЗ - северо-западный.
Видимость - горизонтальная дальность видимости в метрах или километрах. При видимости от 1 до 10 км при отсутствии осадков обычно наблюдается дымка, при ухудшении видимости до 1 км и менее - туман. В сухую погоду видимость может ухудшаться дымом, пылью или мглою.
Явления - указаны атмосферные явления, наблюдавшиеся в срок или в последний час перед сроком; фигурными скобками обозначены явления, наблюдавшиеся между сроками (за 1-3 часа до срока); квадратными скобками обозначены град или гололедные отложения с указанием их диаметра в мм.
Облачность - указаны через наклонную черту общая и нижняя облачность в баллах и высота нижней границы облаков в метрах; квадратными скобками обозначены формы облаков: Ci - перистые, Cs - перисто-слоистые, Cc - перисто-кучевые, Ac - высококучевые, As - высокослоистые, Sc - слоисто-кучевые, Ns - слоисто-дождевые, Cu - кучевые, Cb - кучево-дождевые. Подробнее классификацию облаков см. в Атласе облаков (PDF).
T - Температура воздуха - температура, измеренная на высоте 2 м над землей.
Td - Температура точки росы - температура, при понижении до которой содержащийся в воздухе водяной пар достигнет насыщения.
f - Относительная влажность воздуха - влажноcть воздуха, измеренная на высоте 2 м над землей.
Te - Эффективная температура - температура, которую ощущает одетый по сезону человек в тени. Характеристика душности погоды. При расчете учитывается влияние влажности воздуха и скорости ветра на теплоощущения человека.
Tes - Эффективная температура на солнце - температура, которую ощущает человек, с поправкой на солнечный нагрев. Характеристика знойности погоды. Зависит от высоты солнца над горизонтом, облачности и скорости ветра. Ночью, в пасмурную погоду, а также при ветре 12 м/с и более поправка равна нулю.
P - Атмосферное давление - приведенное к уровню моря атмосферное давление.
Po - Атмосферное давление - измеренное на уровне метеостанции атмосферное давление.
Tmin - Минимальная температура - минимум температуры воздуха на высоте 2 м над землей.
Tmax - Максимальная температура - максимум температуры воздуха на высоте 2 м над землей.
R - Количество осадков - Количество выпавших осадков за период времени, мм. При наведении курсора мыши на число - период времени, за который выпало указанное количество осадков.
R24 - Количество осадков - Количество выпавших осадков за 24 часа, мм.
S - Снежный покров - Высота снежного покрова, см. При наведении курсора мыши на число - состояние снежного покрова и степень покрытия местности в баллах.